Bedford, MA

7:41 PM EST on February 19, 2018 (GMT -0500)
Hanscom

Weather History for KBED - July, 2013

Change the Weather History Date:

Thursday, July 25, 2013

  Actual Average Record
Temperature  
Mean Temperature 60 °F -  
Max Temperature 62 °F 82 °F 98 °F (1963)
Min Temperature 57 °F 60 °F 46 °F (2002)
Degree Days  
Heating Degree Days 6    
Growing Degree Days 10 (Base 50)    
Moisture  
Dew Point 55 °F    
Average Humidity 88    
Maximum Humidity 100    
Minimum Humidity 62    
Precipitation  
Precipitation 1.40 in - - ()
Sea Level Pressure  
Sea Level Pressure 30.09 in    
Wind  
Wind Speed 7 mph (NNE)    
Max Wind Speed 13 mph    
Max Gust Speed 17 mph    
Visibility 6 miles    
Events Rain    
Averages and records for this station are not official NWS values.
T = Trace of Precipitation, MM = Missing Value Source: NWS Daily Summary

Daily Weather History Graph

Daily Weather History Graph

Search for Another Location

Airport or City:

Trip Planner

Search our weather history database for the weather conditions in past years. The results will help you decide how hot, cold, wet, or windy it might be!

Date:

Astronomy

Jul. 25, 2013 Rise Set
Actual Time 5:30 AM EDT 8:12 PM EDT
Civil Twilight 4:58 AM EDT 8:44 PM EDT
Nautical Twilight 4:17 AM EDT 9:25 PM EDT
Astronomical Twilight 3:30 AM EDT 10:12 PM EDT
Moon 9:44 PM EDT (7/25) 9:02 AM EDT (7/25)
Length of Visible Light 15h 46m
Length of Day
14h 41m
Waning Gibbous, 88% of the Moon is Illuminated
Jul 25
Waning Gibbous
Jul 29
Last Quarter
Aug 6
New
Aug 14
First Quarter
Aug 20
Full

Hourly Weather History & Observations

Time (EDT) Temp. Dew Point Humidity Pressure Visibility Wind Dir Wind Speed Gust Speed Precip Events Conditions
12:56 AM 62.1 °F 50.0 °F 65% 30.01 in 10.0 mi North 12.7 mph 17.3 mph N/A   Overcast
1:56 AM 61.0 °F 48.0 °F 62% 30.01 in 10.0 mi NNW 9.2 mph - N/A   Mostly Cloudy
2:56 AM 59.0 °F 48.0 °F 67% 30.01 in 10.0 mi NNW 5.8 mph - N/A   Overcast
3:56 AM 59.0 °F 46.9 °F 64% 30.03 in 10.0 mi NNW 4.6 mph - N/A   Overcast
4:56 AM 59.0 °F 48.0 °F 67% 30.04 in 10.0 mi North 3.5 mph - N/A   Overcast
5:56 AM 59.0 °F 48.0 °F 67% 30.06 in 10.0 mi NNW 4.6 mph - N/A   Overcast
7:56 AM 59.0 °F 50.0 °F 72% 30.09 in 10.0 mi North 4.6 mph - N/A   Overcast
8:56 AM 61.0 °F 51.1 °F 70% 30.11 in 10.0 mi NE 10.4 mph - N/A   Overcast
9:56 AM 61.0 °F 51.1 °F 70% 30.12 in 10.0 mi NE 11.5 mph - N/A   Overcast
10:56 AM 61.0 °F 52.0 °F 72% 30.12 in 10.0 mi NE 9.2 mph - N/A   Overcast
11:56 AM 59.0 °F 54.0 °F 83% 30.14 in 10.0 mi NE 10.4 mph - 0.00 in Rain Light Rain
12:56 PM 59.0 °F 55.0 °F 87% 30.14 in 10.0 mi NNE 6.9 mph - 0.01 in   Overcast
1:56 PM 59.0 °F 55.0 °F 87% 30.13 in 10.0 mi NE 8.1 mph - 0.00 in   Overcast
2:56 PM 61.0 °F 54.0 °F 78% 30.13 in 10.0 mi NNE 9.2 mph - N/A   Overcast
3:56 PM 61.0 °F 55.0 °F 81% 30.12 in 10.0 mi NE 8.1 mph - 0.00 in   Overcast
4:06 PM 60.8 °F 55.4 °F 82% 30.09 in 10.0 mi NNE 6.9 mph - N/A   Overcast
4:24 PM 60.8 °F 55.4 °F 82% 30.08 in 10.0 mi NE 6.9 mph - 0.00 in Rain Light Rain
4:56 PM 59.0 °F 55.9 °F 90% 30.13 in 3.0 mi NNE 4.6 mph - 0.06 in Rain Rain
5:04 PM 59.0 °F 55.4 °F 88% 30.09 in 1.8 mi NNE 3.5 mph - 0.07 in Rain Heavy Rain
5:27 PM 57.2 °F 57.2 °F 100% 30.09 in 2.0 mi Calm Calm - 0.29 in Rain Heavy Rain
5:33 PM 57.2 °F 57.2 °F 100% 30.09 in 1.8 mi Calm Calm - 0.33 in Rain Heavy Rain
5:52 PM 57.2 °F 57.2 °F 100% 30.09 in 2.5 mi NE 5.8 mph - 0.46 in Rain Rain
5:56 PM 57.9 °F 57.9 °F 100% 30.13 in 3.0 mi ENE 5.8 mph - 0.47 in Rain Rain
6:00 PM 57.2 °F 57.2 °F 100% 30.09 in 2.5 mi ENE 4.6 mph - 0.04 in Rain Heavy Rain
6:09 PM 57.2 °F 57.2 °F 100% 30.10 in 1.2 mi ENE 3.5 mph - 0.15 in Rain Heavy Rain
6:20 PM 57.2 °F 57.2 °F 100% 30.09 in 3.0 mi NNE 10.4 mph - 0.19 in Rain Rain
6:50 PM 57.2 °F 57.2 °F 100% 30.08 in 1.8 mi NE 11.5 mph - 0.40 in Rain Heavy Rain
6:56 PM 57.9 °F 57.0 °F 97% 30.11 in 0.8 mi NE 10.4 mph - 0.52 in Rain Heavy Rain
7:01 PM 57.2 °F 57.2 °F 100% 30.08 in 1.0 mi Variable 4.6 mph - 0.02 in Rain Heavy Rain
7:12 PM 57.2 °F 57.2 °F 100% 30.09 in 2.0 mi NW 5.8 mph - 0.06 in Rain Rain
7:17 PM 57.2 °F 55.4 °F 94% 30.09 in 3.0 mi Variable 4.6 mph - 0.07 in Rain Light Rain
7:26 PM 57.2 °F 57.2 °F 100% 30.09 in 2.0 mi North 5.8 mph - 0.11 in Rain Heavy Rain
7:41 PM 57.2 °F 57.2 °F 100% 30.09 in 2.0 mi Calm Calm - 0.22 in Rain Heavy Rain
7:50 PM 57.2 °F 57.2 °F 100% 30.09 in 3.0 mi NW 4.6 mph - 0.28 in Rain Heavy Rain
7:56 PM 57.0 °F 57.0 °F 100% 30.13 in 3.0 mi Calm Calm - 0.29 in Rain Light Rain
8:56 PM 57.9 °F 57.0 °F 97% 30.12 in 10.0 mi NNW 4.6 mph - 0.04 in Rain Light Rain
9:56 PM 57.9 °F 57.0 °F 97% 30.12 in 10.0 mi NW 4.6 mph - 0.00 in Rain Light Rain
10:56 PM 57.9 °F 57.0 °F 97% 30.12 in 10.0 mi NNW 5.8 mph - 0.01 in Rain Light Rain
11:43 PM 57.2 °F 57.2 °F 100% 30.07 in 10.0 mi NNW 3.5 mph - 0.00 in   Overcast
11:56 PM 57.9 °F 57.9 °F 100% 30.11 in 10.0 mi NW 5.8 mph - 0.00 in Rain Light Rain